Weather History for Franklin, NC

Change the Weather History Date:

Tuesday, January 22, 2013

  Actual Average (KTOC) Record (KTOC)
Temperature  
Mean Temperature 30 °F -  
Max Temperature 37 °F 50 °F 41 °F (2014)
Min Temperature 23 °F 33 °F 20 °F (2014)
Degree Days  
Heating Degree Days 35    
Moisture  
Dew Point 0 °F    
Average Humidity 30    
Maximum Humidity 43    
Minimum Humidity 12    
Precipitation  
Precipitation 0.00 in - - ()
Sea Level Pressure  
Sea Level Pressure 30.16 in    
Wind  
Wind Speed 8 mph (NNW)    
Max Wind Speed 13 mph    
Max Gust Speed 23 mph    
Visibility 10 miles    
Events      
Averages and records for this station are not official NWS values.
T = Trace of Precipitation, MM = Missing Value Source: NWS Daily Summary

Daily Weather History Graph

Daily Weather History Graph

Search for Another Location

Airport:

Trip Planner

Search our weather history database for the weather conditions in past years. The results will help you decide how hot, cold, wet, or windy it might be!

Date:

Astronomy

Jan. 22, 2013 Rise Set
Actual Time 7:38 AM EST 5:52 PM EST
Civil Twilight 7:11 AM EST 6:19 PM EST
Nautical Twilight 6:40 AM EST 6:50 PM EST
Astronomical Twilight 6:10 AM EST 7:20 PM EST
Moon 2:15 PM EST 3:58 AM EST
Length of Visible Light 11h 07m
Length of Day
10h 13m
Waxing Gibbous, 82% of the Moon is Illuminated
Jan 22
Waxing Gibbous
Jan 26
Full
Feb 3
Last Quarter
Feb 10
New
Feb 17
First Quarter

Hourly Weather History & Observations

Time (EST) Temp. Windchill Dew Point Humidity Pressure Visibility Wind Dir Wind Speed Gust Speed Precip Events Conditions
12:35 AM 29.7 °F 20.7 °F 7.9 °F 40% 30.09 in 10.0 mi North 10.4 mph 16.1 mph N/A   Clear
12:55 AM 29.3 °F 20.2 °F 8.2 °F 41% 30.08 in 10.0 mi North 10.4 mph - N/A   Clear
1:15 AM 29.1 °F 22.1 °F 7.9 °F 41% 30.08 in 10.0 mi North 6.9 mph - N/A   Clear
1:35 AM 28.4 °F 19.7 °F 8.1 °F 42% 30.08 in 10.0 mi NW 9.2 mph - N/A   Clear
1:55 AM 28.4 °F 22.2 °F 7.0 °F 40% 30.09 in 10.0 mi NW 5.8 mph 16.1 mph N/A   Clear
2:15 AM 27.9 °F 22.6 °F 6.3 °F 40% 30.09 in 10.0 mi North 4.6 mph - N/A   Clear
2:35 AM 27.5 °F 19.3 °F 6.3 °F 41% 30.09 in 10.0 mi NW 8.1 mph - N/A   Clear
2:55 AM 26.8 °F 22.8 °F 6.8 °F 43% 30.09 in 10.0 mi North 3.5 mph - N/A   Clear
3:15 AM 26.6 °F 21.2 °F 6.1 °F 42% 30.09 in 10.0 mi NNW 4.6 mph - N/A   Clear
3:35 AM 26.2 °F 19.6 °F 5.5 °F 41% 30.09 in 10.0 mi NNW 5.8 mph - N/A   Clear
3:55 AM 25.9 °F 17.4 °F 5.4 °F 42% 30.09 in 10.0 mi NNW 8.1 mph 17.3 mph N/A   Clear
4:15 AM 25.5 °F 18.7 °F 4.8 °F 41% 30.09 in 10.0 mi NNW 5.8 mph - N/A   Clear
4:35 AM 24.8 °F 16.9 °F 4.5 °F 42% 30.09 in 10.0 mi North 6.9 mph - N/A   Clear
4:55 AM 24.6 °F 17.7 °F 2.1 °F 38% 30.10 in 10.0 mi NW 5.8 mph - N/A   Clear
5:15 AM 24.4 °F 17.5 °F 1.8 °F 38% 30.10 in 10.0 mi NNW 5.8 mph 17.3 mph N/A   Clear
5:35 AM 23.9 °F 16.8 °F 2.1 °F 39% 30.11 in 10.0 mi NW 5.8 mph - N/A   Clear
5:55 AM 24.1 °F 16.0 °F 1.6 °F 38% 30.11 in 10.0 mi North 6.9 mph - N/A   Clear
6:15 AM 23.5 °F 15.4 °F 2.3 °F 40% 30.12 in 10.0 mi North 6.9 mph - N/A   Clear
6:35 AM 23.5 °F - 1.9 °F 39% 30.12 in 10.0 mi Calm Calm - N/A   Clear
6:55 AM 23.5 °F 16.4 °F 1.2 °F 38% 30.13 in 10.0 mi North 5.8 mph - N/A   Clear
7:15 AM 23.5 °F 14.5 °F 1.0 °F 38% 30.14 in 10.0 mi North 8.1 mph 16.1 mph N/A   Clear
7:35 AM 23.2 °F 11.4 °F 0.7 °F 38% 30.14 in 10.0 mi North 12.7 mph 17.3 mph N/A   Clear
7:55 AM 23.0 °F 12.4 °F 0.7 °F 38% 30.14 in 10.0 mi North 10.4 mph 19.6 mph N/A   Clear
8:15 AM 23.0 °F 13.9 °F 1.0 °F 39% 30.15 in 10.0 mi North 8.1 mph 17.3 mph N/A   Clear
8:35 AM 23.9 °F 18.0 °F 1.9 °F 39% 30.16 in 10.0 mi North 4.6 mph 17.3 mph N/A   Clear
8:55 AM 24.6 °F 15.8 °F 1.4 °F 37% 30.16 in 10.0 mi North 8.1 mph - N/A   Clear
9:15 AM 25.2 °F 15.7 °F 1.9 °F 37% 30.18 in 10.0 mi North 9.2 mph 16.1 mph N/A   Clear
9:35 AM 25.7 °F 15.7 °F 1.8 °F 36% 30.18 in 10.0 mi North 10.4 mph 17.3 mph N/A   Clear
9:55 AM 26.8 °F 17.1 °F 1.6 °F 34% 30.19 in 10.0 mi North 10.4 mph 16.1 mph N/A   Clear
10:15 AM 27.5 °F 18.0 °F 1.4 °F 33% 30.19 in 10.0 mi North 10.4 mph 21.9 mph N/A   Clear
10:55 AM 29.5 °F 21.1 °F 0.5 °F 29% 30.21 in 10.0 mi North 9.2 mph - N/A   Clear
11:15 AM 30.6 °F 20.7 °F -0.0 °F 27% 30.21 in 10.0 mi NNW 12.7 mph 18.4 mph N/A   Clear
11:35 AM 31.3 °F 23.3 °F -1.7 °F 24% 30.21 in 10.0 mi North 9.2 mph 18.4 mph N/A   Clear
11:55 AM 32.0 °F 24.2 °F -4.2 °F 21% 30.21 in 10.0 mi NW 9.2 mph 18.4 mph N/A   Clear
12:15 PM 31.8 °F 23.9 °F -6.0 °F 20% 30.20 in 10.0 mi North 9.2 mph 19.6 mph N/A   Clear
12:35 PM 32.2 °F 23.8 °F -8.0 °F 18% 30.20 in 10.0 mi NNW 10.4 mph 18.4 mph N/A   Clear
12:55 PM 33.3 °F 25.7 °F -10.8 °F 15% 30.19 in 10.0 mi North 9.2 mph 17.3 mph N/A   Clear
1:15 PM 34.2 °F 27.5 °F -13.9 °F 12% 30.18 in 10.0 mi NNW 8.1 mph 17.3 mph N/A   Clear
1:35 PM 34.0 °F 28.8 °F -13.0 °F 13% 30.17 in 10.0 mi NNW 5.8 mph 23.0 mph N/A   Clear
1:55 PM 35.1 °F 29.3 °F -6.3 °F 17% 30.16 in 10.0 mi NNW 6.9 mph 16.1 mph N/A   Clear
2:15 PM 35.6 °F 27.5 °F -4.0 °F 18% 30.16 in 10.0 mi NNW 11.5 mph 18.4 mph N/A   Clear
2:35 PM 36.1 °F 30.6 °F -2.4 °F 19% 30.15 in 10.0 mi WNW 6.9 mph - N/A   Clear
2:55 PM 36.9 °F 32.2 °F -1.8 °F 19% 30.14 in 10.0 mi NNE 5.8 mph 21.9 mph N/A   Clear
3:15 PM 37.2 °F 31.2 °F -2.0 °F 19% 30.15 in 10.0 mi NW 8.1 mph - N/A   Clear
3:35 PM 37.8 °F 31.3 °F 0.1 °F 21% 30.14 in 10.0 mi WNW 9.2 mph 21.9 mph N/A   Clear
3:55 PM 37.8 °F 31.8 °F -0.0 °F 20% 30.15 in 10.0 mi WNW 8.1 mph 18.4 mph N/A   Clear
4:15 PM 37.0 °F 31.0 °F -0.0 °F 21% 30.16 in 10.0 mi NW 8.1 mph 17.3 mph N/A   Clear
4:35 PM 36.1 °F 27.7 °F -0.6 °F 21% 30.17 in 10.0 mi NNW 12.7 mph 19.6 mph N/A   Mostly Cloudy
4:55 PM 34.2 °F 27.5 °F -2.2 °F 21% 30.18 in 10.0 mi NW 8.1 mph 18.4 mph N/A   Mostly Cloudy
5:15 PM 33.1 °F 28.7 °F -3.1 °F 21% 30.18 in 10.0 mi WNW 4.6 mph - N/A   Scattered Clouds
5:35 PM 32.2 °F 23.8 °F -2.2 °F 23% 30.18 in 10.0 mi NW 10.4 mph 16.1 mph N/A   Clear
5:55 PM 32.0 °F - -2.4 °F 23% 30.18 in 10.0 mi Calm Calm - N/A   Clear
6:15 PM 30.9 °F 26.2 °F -2.2 °F 24% 30.18 in 10.0 mi North 4.6 mph - N/A   Scattered Clouds
6:35 PM 29.7 °F 26.1 °F 0.3 °F 28% 30.19 in 10.0 mi North 3.5 mph - N/A   Clear
6:55 PM 29.8 °F 24.9 °F -1.3 °F 26% 30.19 in 10.0 mi North 4.6 mph - N/A   Clear
7:15 PM 29.8 °F 23.0 °F -1.5 °F 26% 30.20 in 10.0 mi NNW 6.9 mph - N/A   Clear
7:35 PM 29.1 °F 22.1 °F -1.3 °F 27% 30.21 in 10.0 mi North 6.9 mph - N/A   Clear
7:55 PM 28.2 °F 23.1 °F -0.6 °F 29% 30.21 in 10.0 mi North 4.6 mph - N/A   Clear
8:15 PM 28.2 °F 22.0 °F -1.7 °F 28% 30.23 in 10.0 mi NNW 5.8 mph - N/A   Clear
8:35 PM 28.2 °F 18.9 °F -2.0 °F 27% 30.22 in 10.0 mi North 10.4 mph 16.1 mph N/A   Mostly Cloudy
8:55 PM 28.2 °F 20.2 °F -0.9 °F 29% 30.21 in 10.0 mi NNW 8.1 mph - N/A   Overcast
9:15 PM 28.2 °F 20.2 °F -0.8 °F 29% 30.21 in 10.0 mi North 8.1 mph - N/A   Overcast
9:35 PM 28.2 °F 21.0 °F -0.6 °F 29% 30.21 in 10.0 mi NNW 6.9 mph - N/A   Overcast
9:55 PM 28.2 °F 21.0 °F -0.8 °F 29% 30.21 in 10.0 mi NNW 6.9 mph - N/A   Overcast
10:15 PM 28.4 °F 22.2 °F -0.6 °F 29% 30.21 in 10.0 mi NNW 5.8 mph - N/A   Overcast
10:35 PM 28.4 °F 21.2 °F -0.2 °F 29% 30.21 in 10.0 mi North 6.9 mph - N/A   Overcast
10:55 PM 28.4 °F 20.4 °F 0.3 °F 30% 30.21 in 10.0 mi North 8.1 mph - N/A   Overcast
11:15 PM 28.4 °F 21.2 °F 1.0 °F 31% 30.21 in 10.0 mi North 6.9 mph - N/A   Overcast
11:35 PM 28.4 °F 22.2 °F 1.6 °F 32% 30.21 in 10.0 mi North 5.8 mph - N/A   Overcast
11:55 PM 28.4 °F 22.2 °F 2.3 °F 33% 30.21 in 10.0 mi North 5.8 mph - N/A   Overcast